Flag for Lithuania Weather past 2 weeks in Vilnius, Lithuania

Now
81 °F

Scattered showers. Broken clouds.


Feels Like: 81 °F
Forecast: 64 / 90 °F
Wind: 1 mph from North

Location: Vilnius Airport

Current Time: Jul 28, 2014 at 8:32:41 PM

Latest Report: Jul 28, 2014 at 7:50 PM


Visibility: N/A

Pressure: 29.98 "Hg

Humidity: 48%

Dew point: 59 °F

Location of VilniusLocation

Historic Weather in Vilnius — Graph

°F

Vilnius temperature yesterday

Maximum temperature yesterday: 86 °F (at 4:20 PM)
Minimum temperature yesterday: 63 °F (at 4:50 AM)
Average temperature yesterday: 76 °F

Past Weeks' High & Low Weather Summary

 TemperatureHumidityPressure
High86 °F (Jul 27, 4:20 PM)100% (Jul 14, 12:20 AM)30.18 "Hg (Jul 14, 12:20 AM)
Low50 °F (Jul 19, 4:50 AM)31% (Jul 18, 12:50 PM)29.80 "Hg (Jul 13, 7:20 PM)
Average69 °F65%30.06 "Hg
* Reported Jul 13 7:20 PM — Jul 28 7:20 PM, Vilnius, Weather by CustomWeather, © 2014

Note: Actual official high and low records may vary slightly from our data, if they occured in-between our weather recording intervals... More about our weather records

Advertising

Vilnius weather history for previous 24 hours

 ConditionsComfort  
Time TempWeatherWind HumidityBarometerVisibility
7:20 PM
Jul 28
81 °FScattered showers. Broken clouds.5 mph48%29.98 "HgN/A
6:50 PM82 °FBroken clouds.6 mph45%29.98 "HgN/A
6:20 PM84 °FBroken clouds.12 mph40%30.01 "HgN/A
5:50 PM86 °FSunny.6 mph35%30.01 "Hg10 mi
5:20 PM86 °FPassing clouds.8 mph38%30.01 "HgN/A
4:50 PM86 °FPassing clouds.9 mph40%30.01 "HgN/A
4:20 PM84 °FBroken clouds.10 mph37%30.01 "HgN/A
3:50 PM82 °FBroken clouds.9 mph42%30.04 "HgN/A
3:20 PM84 °FBroken clouds.12 mph40%30.04 "HgN/A
2:50 PM84 °FBroken clouds.12 mph37%30.04 "HgN/A
2:20 PM86 °FSunny.13 mph38%30.04 "Hg10 mi
1:50 PM84 °FPassing clouds.12 mph37%30.04 "HgN/A
1:20 PM84 °FSunny.13 mph37%30.04 "Hg10 mi
12:50 PM84 °FPassing clouds.14 mph40%30.07 "HgN/A
12:20 PM84 °FPassing clouds.13 mph40%30.07 "HgN/A
11:50 AM84 °FPassing clouds.14 mph40%30.07 "HgN/A
11:20 AM81 °FPassing clouds.8 mph51%30.07 "HgN/A
10:50 AM81 °FSunny.12 mph48%30.07 "Hg10 mi
10:20 AM81 °FPassing clouds.6 mph51%30.07 "HgN/A
9:50 AM79 °FSunny.6 mph54%30.07 "Hg10 mi
9:20 AM77 °FPassing clouds.6 mph57%30.07 "HgN/A
8:50 AM75 °FSunny.8 mph57%30.07 "Hg10 mi
8:20 AM73 °FSunny.6 mph61%30.07 "Hg10 mi
7:50 AM72 °FSunny.5 mph61%30.07 "Hg10 mi
7:20 AM70 °FSunny.7 mph60%30.07 "Hg10 mi
6:50 AM68 °FSunny.5 mph64%30.07 "Hg10 mi
6:20 AM68 °FClear.6 mph64%30.07 "Hg10 mi
5:20 AM66 °FClear.3 mph68%30.07 "Hg10 mi
4:50 AM66 °FClear.3 mph68%30.07 "Hg10 mi
4:20 AM66 °FClear.3 mph68%30.07 "Hg10 mi
3:50 AM64 °FClear.2 mph73%30.09 "Hg10 mi
3:20 AM64 °FClear.5 mph73%30.09 "Hg10 mi
2:20 AM66 °FClear.2 mph68%30.09 "Hg10 mi
1:50 AM66 °FClear.3 mph68%30.09 "Hg10 mi
1:20 AM68 °FClear.5 mph64%30.09 "Hg10 mi
12:50 AM68 °FClear.5 mph64%30.09 "Hg10 mi
12:20 AM68 °FClear.5 mph64%30.09 "Hg10 mi
11:50 PM
Jul 27
72 °FClear.5 mph53%30.09 "Hg10 mi
11:20 PM70 °FClear.3 mph60%30.09 "Hg10 mi
10:50 PM72 °FClear.5 mph57%30.09 "Hg10 mi
10:20 PM75 °FSunny.7 mph47%30.09 "Hg10 mi
9:50 PM75 °FSunny.7 mph47%30.09 "Hg10 mi
9:20 PM77 °FSunny.6 mph44%30.09 "Hg10 mi
8:50 PM79 °FSunny.5 mph42%30.07 "Hg10 mi
8:20 PM79 °FSunny.6 mph42%30.07 "Hg10 mi
Weather by CustomWeather, © 2014

See weather overviewHow to use our weather pages